Satellite-Ground Cal/Val Region Overpasses Predictions

Prediction of Satellite NPP Overpassing Cal/Val Region: PacNW

Region Location: (Latitude: 10.00, Longitude: 139.50) to (Latitude: 22.70, Longitude: 165.60).

Table of predicted overpasses for the next 14.0 days since TLE Epoch: 10/13/2018
Interval Starting Time Starting Location Ending Time Ending Location
1 10/13/2018 15:05:19 ( 22.67, 158.69) 10/13/2018 15:08:54 ( 10.05, 155.69)
2 10/14/2018 02:15:11 ( 12.79, 165.59) 10/14/2018 02:17:59 ( 22.65, 163.23)
3 10/14/2018 03:55:54 ( 10.03, 140.85) 10/14/2018 03:57:33 ( 15.85, 139.50)
4 10/14/2018 14:46:17 ( 22.70, 163.45) 10/14/2018 14:49:53 ( 10.01, 160.44)
5 10/15/2018 03:36:52 ( 10.01, 145.61) 10/15/2018 03:40:28 ( 22.69, 142.60)
6 10/15/2018 14:30:21 ( 11.74, 165.59) 10/15/2018 14:30:50 ( 10.04, 165.20)
7 10/15/2018 16:08:45 ( 22.66, 142.82) 10/15/2018 16:12:20 ( 10.03, 139.83)
8 10/16/2018 03:17:50 ( 10.04, 150.36) 10/16/2018 03:21:25 ( 22.66, 147.36)
9 10/16/2018 15:49:43 ( 22.68, 147.59) 10/16/2018 15:53:19 ( 10.00, 144.57)
10 10/17/2018 02:58:48 ( 10.01, 155.12) 10/17/2018 03:02:24 ( 22.69, 152.11)
11 10/17/2018 15:30:41 ( 22.65, 152.33) 10/17/2018 15:34:16 ( 10.03, 149.34)
12 10/18/2018 02:39:46 ( 10.05, 159.87) 10/18/2018 02:43:21 ( 22.67, 156.87)
13 10/18/2018 15:11:39 ( 22.67, 157.10) 10/18/2018 15:15:14 ( 10.05, 154.10)
14 10/19/2018 02:20:44 ( 10.02, 164.63) 10/19/2018 02:24:19 ( 22.64, 161.64)
15 10/19/2018 14:52:37 ( 22.70, 161.86) 10/19/2018 14:56:13 ( 10.02, 158.85)
16 10/20/2018 03:43:11 ( 10.00, 144.02) 10/20/2018 03:46:47 ( 22.68, 141.01)
17 10/20/2018 14:34:45 ( 18.56, 165.60) 10/20/2018 14:37:10 ( 10.04, 163.61)
18 10/20/2018 16:15:05 ( 22.66, 141.23) 10/20/2018 16:17:06 ( 15.56, 139.51)
19 10/21/2018 03:24:10 ( 10.04, 148.77) 10/21/2018 03:27:45 ( 22.66, 145.77)
20 10/21/2018 15:56:03 ( 22.68, 145.99) 10/21/2018 15:59:39 ( 10.00, 142.98)
21 10/22/2018 03:05:07 ( 10.01, 153.53) 10/22/2018 03:08:43 ( 22.70, 150.52)
22 10/22/2018 15:37:01 ( 22.65, 150.74) 10/22/2018 15:40:36 ( 10.02, 147.74)
23 10/23/2018 02:46:06 ( 10.05, 158.28) 10/23/2018 02:49:41 ( 22.67, 155.28)
24 10/23/2018 15:17:59 ( 22.67, 155.50) 10/23/2018 15:21:34 ( 10.05, 152.50)
25 10/24/2018 02:27:03 ( 10.03, 163.04) 10/24/2018 02:30:38 ( 22.65, 160.04)
26 10/24/2018 14:58:56 ( 22.69, 160.26) 10/24/2018 15:02:32 ( 10.01, 157.25)
27 10/25/2018 02:10:41 ( 19.40, 165.60) 10/25/2018 02:11:37 ( 22.69, 164.79)
28 10/25/2018 03:49:31 ( 10.01, 142.42) 10/25/2018 03:53:00 ( 22.28, 139.51)
29 10/25/2018 14:39:55 ( 22.66, 165.01) 10/25/2018 14:43:30 ( 10.03, 162.01)
30 10/25/2018 16:21:25 ( 22.65, 139.63) 10/25/2018 16:21:34 ( 22.12, 139.50)
31 10/26/2018 03:30:29 ( 10.05, 147.17) 10/26/2018 03:34:04 ( 22.67, 144.17)
32 10/26/2018 16:02:22 ( 22.67, 144.39) 10/26/2018 16:05:57 ( 10.05, 141.40)


NCC Satellite Cal/Val Overpasses Prediction Service
